[[{"header":{"parameterUnit":"m.s-1","parameterCategory":1,"la1":30.2992,"la2":30.254,"lo1":-89.0895,"lo2":-89.0443,"dy":0.0025,"dx":0.0025,"nx":19,"ny":19,"refTime":"2026-05-01T03:00:00:Z","depth":0,"parameterNumber":2,"parameterNumberName":"U-component_of_WINDS"},"data":[0,0,0,-2.2996,-2.2996,-2.3,-2.3,-2.3024,-2.3025,0,0,0,0,0,0,0,0,0,0,0,-2.3008,-2.3008,-2.2996,-2.2996,-2.3,-2.3,-2.3024,-2.3025,0,0,0,0,0,0,0,0,0,0,0,-2.3007,-2.3008,-2.3009,-2.2996,-2.3,-2.3,-2.3024,-2.3014,0,0,0,0,0,0,0,0,0,0,-2.3007,-2.3031,-2.3008,-2.3009,-2.2996,-2.3,-2.3,-2.3013,-2.3015,-2.3031,0,-2.305,0,-2.3038,-2.3028,-2.3028,0,0,0,-2.2987,-2.303,-2.3019,-2.3009,-2.2997,-2.3,-2.2995,-2.3014,-2.3016,-2.3034,-2.305,-2.3051,-2.3038,-2.3028,-2.3028,-2.3156,-2.3157,0,0,-2.2986,-2.3015,-2.3018,-2.3021,-2.3022,-2.2995,-2.2996,-2.3015,-2.3035,-2.305,-2.3051,-2.3039,-2.3028,-2.3029,-2.3155,-2.3157,0,0,0,-2.2992,-2.3016,-2.3004,-2.302,-2.3019,-2.2996,-2.2996,-2.3034,-2.3028,-2.3051,-2.3039,-2.3028,-2.3029,-2.3154,-2.3156,-2.3235,0,0,0,-2.2992,-2.3019,-2.3004,-2.3022,-2.302,-2.3027,-2.3015,-2.3026,-2.3027,-2.3039,-2.3028,-2.3029,-2.3153,-2.3155,-2.323,-2.3268,0,0,0,-2.3003,-2.302,-2.3025,-2.3023,-2.3026,-2.3026,-2.302,-2.3026,-2.3021,-2.3028,-2.303,-2.3152,-2.3155,-2.3226,-2.3261,-2.3309,0,0,0,-2.3023,-2.3096,-2.3027,-2.3103,-2.3026,-2.3075,-2.302,-2.3055,-2.307,-2.3029,-2.3153,-2.3156,-2.3225,-2.3256,-2.3305,-2.3355,-2.3379,0,0,-2.3131,-2.311,-2.3152,-2.309,-2.3159,-2.3072,-2.3152,-2.3139,-2.3114,-2.3143,-2.3146,-2.3232,-2.326,-2.3308,-2.3502,-2.3521,0,0,0,-2.3196,-2.3227,-2.3239,-2.3255,-2.3247,-2.3242,-2.3214,-2.3209,-2.3233,-2.3135,-2.3262,-2.3278,-2.3305,-2.3327,-2.3344,-2.3365,-2.3167,-2.3167,-2.3167,-2.339,-2.3353,-2.342,-2.3383,-2.34,-2.3369,-2.3378,-2.3366,-2.3325,-2.3355,-2.3364,-2.3486,-2.3514,-2.3526,-2.3548,-2.3388,-2.3388,-2.3388,-2.3389,-2.3544,-2.3581,-2.3523,-2.3568,-2.3528,-2.3565,-2.3538,-2.3507,-2.3535,-2.3477,-2.3499,-2.3438,-2.3548,-2.3565,-2.3394,-2.3393,-2.3392,-2.3392,-2.3392,-2.3666,-2.3678,-2.367,-2.3688,-2.3706,-2.3666,-2.3696,-2.3658,-2.3623,-2.3645,-2.365,-2.3648,-2.3642,-2.365,-2.365,-2.3651,-2.3651,-2.3652,-2.3652,-2.3797,-2.3785,-2.3815,-2.3811,-2.3815,-2.3817,-2.3786,-2.3789,-2.3784,-2.3754,-2.3754,-2.3709,-2.3566,-2.353,-2.3658,-2.3657,-2.3656,-2.3656,-2.3655,-2.3966,-2.3922,-2.3967,-2.3972,-2.3963,-2.3983,-2.3935,-2.3945,-2.3942,-2.3958,-2.3908,-2.3808,-2.3784,-2.3771,-2.3741,-2.3916,-2.3916,-2.3916,-2.3916,-2.407,-2.4053,-2.4091,-2.41,-2.4105,-2.4066,-2.4118,-2.4094,-2.4063,-2.4059,-2.4028,-2.3985,-2.3974,-2.3956,-2.3939,-2.3911,-2.4125,-2.4125,-2.4126,-2.4172,-2.4154,-2.4206,-2.4174,-2.4164,-2.4157,-2.4204,-2.4217,-2.4172,-2.4133,-2.4054,-2.4046,-2.3977,-2.3956,-2.3916,-2.389,-2.3838,0,0]},{"header":{"parameterUnit":"m.s-1","parameterCategory":1,"la1":30.2992,"la2":30.254,"lo1":-89.0895,"lo2":-89.0443,"dy":0.0025,"dx":0.0025,"nx":19,"ny":19,"refTime":"2026-05-01T03:00:00:Z","depth":0,"parameterNumber":3,"parameterNumberName":"V-component_of_WINDS"},"data":[0,0,0,-1.0791,-1.0791,-1.0772,-1.0772,-1.0724,-1.0723,0,0,0,0,0,0,0,0,0,0,0,-1.0784,-1.0783,-1.0791,-1.079,-1.0772,-1.0772,-1.0724,-1.0723,0,0,0,0,0,0,0,0,0,0,0,-1.0784,-1.0784,-1.0783,-1.079,-1.0772,-1.0772,-1.0724,-1.0746,0,0,0,0,0,0,0,0,0,0,-1.0768,-1.075,-1.0784,-1.0783,-1.079,-1.0772,-1.0772,-1.0748,-1.0745,-1.0722,0,-1.0701,0,-1.0711,-1.0718,-1.0718,0,0,0,-1.0799,-1.0752,-1.0759,-1.0783,-1.079,-1.0772,-1.0783,-1.0746,-1.0743,-1.0718,-1.0701,-1.0699,-1.071,-1.0718,-1.0718,-1.0563,-1.0561,0,0,-1.08,-1.0774,-1.0761,-1.0756,-1.076,-1.0783,-1.0782,-1.0745,-1.0723,-1.07,-1.0699,-1.071,-1.0718,-1.0717,-1.0564,-1.0562,0,0,0,-1.0797,-1.0774,-1.0782,-1.0757,-1.0756,-1.0782,-1.0781,-1.0724,-1.0729,-1.0698,-1.0709,-1.0717,-1.0716,-1.0565,-1.0563,-1.048,0,0,0,-1.0798,-1.0772,-1.0782,-1.0765,-1.0756,-1.074,-1.0761,-1.0732,-1.0729,-1.0709,-1.0717,-1.0716,-1.0566,-1.0564,-1.0485,-1.0444,0,0,0,-1.079,-1.0771,-1.0765,-1.0764,-1.0755,-1.0742,-1.0745,-1.0732,-1.0734,-1.0718,-1.0715,-1.0567,-1.0564,-1.049,-1.0452,-1.0394,0,0,0,-1.0772,-1.0691,-1.0763,-1.0676,-1.0755,-1.0692,-1.0745,-1.0699,-1.0675,-1.0717,-1.0566,-1.0563,-1.0491,-1.0457,-1.0399,-1.0339,-1.0313,0,0,-1.0655,-1.0676,-1.0627,-1.0691,-1.0608,-1.0697,-1.06,-1.0604,-1.0626,-1.0582,-1.0578,-1.0483,-1.0452,-1.0395,-1.0176,-1.0155,0,0,0,-1.0581,-1.0545,-1.0529,-1.0506,-1.0507,-1.0504,-1.0525,-1.0526,-1.049,-1.0599,-1.0449,-1.0431,-1.0399,-1.0371,-1.0353,-1.0325,-1.055,-1.0551,-1.0551,-1.0375,-1.0409,-1.033,-1.0361,-1.0337,-1.036,-1.0343,-1.0347,-1.0388,-1.0352,-1.0338,-1.0202,-1.0169,-1.0156,-1.0126,-1.0312,-1.0312,-1.0311,-1.0311,-1.0205,-1.0158,-1.0215,-1.0158,-1.0193,-1.0146,-1.0163,-1.0193,-1.0152,-1.0216,-1.0188,-1.0253,-1.0131,-1.0107,-1.0305,-1.0306,-1.0307,-1.0308,-1.0308,-1.0072,-1.0055,-1.0059,-1.0028,-0.9999,-1.0034,-0.9991,-1.0026,-1.0057,-1.0031,-1.0018,-1.002,-1.0023,-1.0023,-1.0022,-1.0022,-1.0022,-1.0021,-1.0021,-0.9931,-0.9938,-0.9899,-0.9893,-0.9882,-0.9871,-0.9892,-0.9881,-0.9877,-0.9905,-0.9905,-0.9947,-1.0114,-1.0154,-1.0014,-1.0015,-1.0016,-1.0016,-1.0017,-0.9742,-0.979,-0.973,-0.9718,-0.9713,-0.9681,-0.9726,-0.97,-0.9697,-0.9674,-0.9722,-0.9841,-0.9864,-0.9879,-0.9912,-0.9717,-0.9717,-0.9717,-0.9717,-0.9627,-0.9644,-0.9589,-0.9568,-0.9552,-0.9586,-0.9513,-0.9528,-0.955,-0.9549,-0.9583,-0.963,-0.9644,-0.9659,-0.9678,-0.9709,-0.9467,-0.9467,-0.9467,-0.9511,-0.9527,-0.946,-0.9485,-0.9483,-0.9479,-0.9411,-0.9383,-0.9419,-0.9458,-0.9548,-0.9559,-0.9636,-0.966,-0.9698,-0.9727,-0.9785,0,0]}]]